CW8399 Weather Reports


Display with metric or nautical units.
time (UTC)temp
F
wind
direction
speed
MPH
gust
MPH
rain 1hr
in
rain 24hr
in
rain mn
in
humidity
%
barometer
mb
20260506100500 62 0 0.0 0.0 0.00 0.00 0.00
20260506100002 62 0 0.0 1.0 0.00 0.00 0.00
20260506095505 62 0 0.0 1.0 0.00 0.00 0.00
20260506094501 62 0 0.0 1.0 0.00 0.00 0.00
20260506094001 63 0 0.0 1.0 0.00 0.00 0.00
20260506093506 63 0 0.0 1.0 0.00 0.00 0.00
20260506092510 63 0 0.0 1.0 0.00 0.00 0.00
20260506092012 63 0 0.0 1.0 0.00 0.00 0.00
20260506090014 63 0 0.0 1.0 0.00 0.00 0.00
20260506085513 63 0 0.0 0.0 0.00 0.00 0.00
20260506084508 64 0 0.0 1.0 0.00 0.00 0.00
20260506083512 64 0 0.0 1.0 0.00 0.00 0.00
20260506083011 64 0 0.0 1.0 0.00 0.00 0.00
20260506082514 64 0 0.0 1.0 0.00 0.00 0.00
20260506082013 64 0 0.0 0.0 0.00 0.00 0.00
20260506081506 64 0 0.0 0.0 0.00 0.00 0.00
20260506080508 65 0 0.0 0.0 0.00 0.00 0.00
20260506073016 66 0 0.0 3.0 0.00 0.00 0.00
20260506072516 66 0 0.0 2.0 0.00 0.00 0.00
20260506071513 67 0 0.0 2.0 0.00 0.00 0.00
20260506071012 67 0 0.0 2.0 0.00 0.00 0.00
20260506062023 68 345 0.0 3.0 0.00 0.00 0.00
20260506061516 68 0 0.0 4.0 0.00 0.00 0.00
20260506061014 68 0 0.0 2.0 0.00 0.00 0.00
20260506060516 68 0 0.0 1.0 0.00 0.00 0.00
20260506051016 71 0 0.0 3.0 0.00 0.00 0.00
20260506050516 72 0 0.0 3.0 0.00 0.00 0.00
20260506045021 72 0 1.0 5.0 0.00 0.00 0.00
20260506044511 72 0 0.0 2.0 0.00 0.00 0.00
20260506043517 73 0 0.0 1.0 0.00 0.00 0.00
20260506043017 73 0 0.0 2.0 0.00 0.00 0.00
20260506042519 73 359 0.0 6.0 0.00 0.00 0.00
20260506042021 73 325 0.0 6.0 0.00 0.00 0.00
20260506041513 73 349 3.0 6.0 0.00 0.00 0.00
20260506041014 73 0 0.0 6.0 0.00 0.00 0.00
20260506040515 74 0 2.0 6.0 0.00 0.00 0.00
20260506040016 74 0 1.0 4.0 0.00 0.00 0.00
20260506035500 74 0 1.0 7.0 0.00 0.00 0.00
20260506035022 74 0 0.0 7.0 0.00 0.00 0.00
20260506034516 74 0 1.0 7.0 0.00 0.00 0.00
20260506034016 74 359 1.0 7.0 0.00 0.00 0.00
20260506033459 74 0 3.0 6.0 0.00 0.00 0.00
20260506033000 74 0 3.0 8.0 0.00 0.00 0.00
20260506032501 74 0 2.0 8.0 0.00 0.00 0.00
20260506032021 74 0 4.0 8.0 0.00 0.00 0.00
20260506031516 75 0 4.0 7.0 0.00 0.00 0.00
20260506031016 75 354 2.0 8.0 0.00 0.00 0.00
20260506030519 75 0 1.0 10.0 0.00 0.00 0.00
20260506030020 75 333 5.0 12.0 0.00 0.00 0.00
20260506025522 75 0 3.0 12.0 0.00 0.00 0.00
20260506025000 75 356 4.0 8.0 0.00 0.00 0.00
20260506024003 76 355 3.0 10.0 0.00 0.00 0.00
20260506023504 76 0 3.0 10.0 0.00 0.00 0.00
20260506023005 76 0 2.0 10.0 0.00 0.00 0.00
20260506022505 76 359 2.0 10.0 0.00 0.00 0.00
20260506022027 76 279 4.0 10.0 0.00 0.00 0.00
20260506021459 77 357 4.0 9.0 0.00 0.00 0.00
20260506021000 77 0 5.0 8.0 0.00 0.00 0.00
20260506020503 77 0 3.0 7.0 0.00 0.00 0.00
20260506020003 77 0 1.0 6.0 0.00 0.00 0.00
20260506015506 77 337 1.0 7.0 0.00 0.00 0.00
20260506015028 78 357 4.0 8.0 0.00 0.00 0.00
20260506014518 78 315 4.0 8.0 0.00 0.00 0.00
20260506014019 78 353 3.0 6.0 0.00 0.00 0.00
20260506013000 79 0 2.0 9.0 0.00 0.00 0.00
20260506012503 79 356 6.0 9.0 0.00 0.00 0.00
20260506012005 79 334 1.0 7.0 0.00 0.00 0.00
20260506011528 79 194 2.0 5.0 0.00 0.00 0.00
20260506011017 79 311 0.0 6.0 0.00 0.00 0.00
20260506010518 79 212 0.0 7.0 0.00 0.00 0.00
20260506010018 80 0 4.0 7.0 0.00 0.00 0.00
20260506005517 79 353 0.0 5.0 0.00 0.00 0.00
20260506005018 79 180 0.0 3.0 0.00 0.00 0.00
20260506004510 79 183 0.0 3.0 0.00 0.00 0.00
20260506004010 79 240 0.0 5.0 0.00 0.00 0.00
20260506003511 79 357 3.0 8.0 0.00 0.00 0.00
20260506003016 80 0 3.0 9.0 0.00 0.00 0.00
20260506002020 79 355 2.0 8.0 0.00 0.00 0.00
20260506001512 79 106 0.0 6.0 0.00 0.00 0.00
20260506000515 79 0 1.0 8.0 0.00 0.00 0.00
20260506000015 80 0 3.0 7.0 0.00 0.00 0.00
20260505235020 80 349 1.0 8.0 0.00 0.00 0.00
20260505234015 80 138 3.0 7.0 0.00 0.00 0.00
20260505233519 79 0 2.0 6.0 0.00 0.00 0.00
20260505233022 79 0 0.0 4.0 0.00 0.00 0.00
20260505232513 79 242 1.0 5.0 0.00 0.00 0.00
20260505232017 79 359 2.0 5.0 0.00 0.00 0.00
20260505231519 80 353 0.0 4.0 0.00 0.00 0.00
20260505231002 79 0 2.0 7.0 0.00 0.00 0.00
20260505225508 80 309 4.0 8.0 0.00 0.00 0.00
20260505225010 80 348 2.0 8.0 0.00 0.00 0.00
20260505223504 80 358 3.0 11.0 0.00 0.00 0.00
20260505223006 79 352 1.0 11.0 0.00 0.00 0.00
20260505222505 79 346 4.0 11.0 0.00 0.00 0.00
20260505222026 79 0 5.0 9.0 0.00 0.00 0.00
20260505221521 79 358 2.0 9.0 0.00 0.00 0.00
20260505221001 79 0 4.0 8.0 0.00 0.00 0.00
20260505214504 79 358 8.0 12.0 0.00 0.00 0.00
20260505214006 79 359 4.0 9.0 0.00 0.00 0.00
20260505213506 78 353 2.0 9.0 0.00 0.00 0.00
20260505212012 79 202 0.0 10.0 0.00 0.00 0.00
20260505211509 79 353 5.0 10.0 0.00 0.00 0.00
20260505211010 79 359 3.0 13.0 0.00 0.00 0.00
20260505210013 79 357 2.0 17.0 0.00 0.00 0.00
20260505205514 79 325 5.0 22.0 0.00 0.00 0.00
20260505205014 79 1 8.0 22.0 0.00 0.00 0.00
20260505204506 78 357 3.0 13.0 0.00 0.00 0.00
20260505204006 79 0 1.0 13.0 0.00 0.00 0.00
20260505203508 78 350 0.0 12.0 0.00 0.00 0.00
20260505203008 78 0 3.0 12.0 0.00 0.00 0.00
20260505202505 78 358 6.0 11.0 0.00 0.00 0.00
20260505202026 78 347 5.0 10.0 0.00 0.00 0.00
20260505201517 78 358 1.0 9.0 0.00 0.00 0.00
20260505201020 78 337 3.0 9.0 0.00 0.00 0.00
20260505200506 78 0 2.0 9.0 0.00 0.00 0.00
20260505200008 78 359 4.0 10.0 0.00 0.00 0.00
20260505195507 78 0 3.0 11.0 0.00 0.00 0.00
20260505195012 77 347 3.0 11.0 0.00 0.00 0.00
20260505194503 77 351 5.0 14.0 0.00 0.00 0.00
20260505193508 77 355 6.0 12.0 0.00 0.00 0.00
20260505193010 77 357 6.0 16.0 0.00 0.00 0.00
20260505192015 76 356 2.0 9.0 0.00 0.00 0.00
20260505191507 76 357 4.0 8.0 0.00 0.00 0.00
20260505191009 76 323 0.0 8.0 0.00 0.00 0.00
20260505190508 75 351 2.0 9.0 0.00 0.00 0.00
20260505190009 75 357 6.0 9.0 0.00 0.00 0.00
20260505185510 75 320 1.0 7.0 0.00 0.00 0.00
20260505185015 75 342 1.0 7.0 0.00 0.00 0.00
20260505184611 75 356 2.0 7.0 0.00 0.00 0.00
20260505184004 75 0 1.0 9.0 0.00 0.00 0.00
20260505183505 74 0 1.0 12.0 0.00 0.00 0.00
20260505183008 74 0 3.0 15.0 0.00 0.00 0.00
20260505182509 74 359 2.0 10.0 0.00 0.00 0.00
20260505182012 74 345 3.0 11.0 0.00 0.00 0.00
20260505181504 73 340 5.0 11.0 0.00 0.00 0.00
20260505181007 73 337 0.0 7.0 0.00 0.00 0.00
20260505180509 73 0 2.0 13.0 0.00 0.00 0.00
20260505180013 73 7 4.0 13.0 0.00 0.00 0.00
20260505175512 72 0 2.0 6.0 0.00 0.00 0.00
20260505174506 72 0 1.0 9.0 0.00 0.00 0.00
20260505174005 71 4 5.0 8.0 0.00 0.00 0.00
20260505173506 71 0 0.0 6.0 0.00 0.00 0.00
20260505173011 70 0 0.0 6.0 0.00 0.00 0.00
20260505172515 70 356 0.0 6.0 0.00 0.00 0.00
20260505171512 70 0 3.0 7.0 0.00 0.00 0.00
20260505171012 70 359 3.0 7.0 0.00 0.00 0.00
20260505170512 70 0 2.0 6.0 0.00 0.00 0.00
20260505165517 69 0 2.0 7.0 0.00 0.00 0.00
20260505165019 69 17 2.0 8.0 0.00 0.00 0.00
20260505164521 68 359 5.0 8.0 0.00 0.00 0.00
20260505164013 68 0 0.0 6.0 0.00 0.00 0.00
20260505162957 67 6 1.0 6.0 0.00 0.00 0.00
20260505162026 66 135 0.0 6.0 0.00 0.00 0.00
20260505161518 66 106 2.0 6.0 0.00 0.00 0.00
20260505161002 65 0 0.0 5.0 0.00 0.00 0.00
20260505160505 65 0 0.0 5.0 0.00 0.00 0.00
20260505153018 64 281 2.0 6.0 0.00 0.00 0.00
20260505152519 64 0 0.0 4.0 0.00 0.00 0.00
20260505152020 64 0 2.0 4.0 0.00 0.00 0.00
20260505151512 64 0 2.0 4.0 0.00 0.00 0.00
20260505151013 64 0 1.0 5.0 0.00 0.00 0.00
20260505150515 64 355 1.0 5.0 0.00 0.00 0.00
20260505140513 61 313 0.0 6.0 0.00 0.00 0.00
20260505125030 60 0 0.0 2.0 0.00 0.00 0.00
20260505124503 60 0 0.0 3.0 0.00 0.00 0.00
20260505124005 60 0 1.0 3.0 0.00 0.00 0.00
20260505123009 60 0 0.0 2.0 0.00 0.00 0.00
20260505122514 60 0 0.0 2.0 0.00 0.00 0.00
20260505122021 60 354 0.0 1.0 0.00 0.00 0.00
20260505121511 60 0 0.0 1.0 0.00 0.00 0.00
20260505121009 60 269 0.0 0.0 0.00 0.00 0.00
20260505120510 60 319 0.0 1.0 0.00 0.00 0.00
20260505120010 61 0 0.0 1.0 0.00 0.00 0.00
20260505115510 61 0 0.0 2.0 0.00 0.00 0.00
20260505115010 61 0 0.0 2.0 0.00 0.00 0.00
20260505114503 61 0 0.0 6.0 0.00 0.00 0.00
20260505114001 61 0 1.0 6.0 0.00 0.00 0.00
20260505113007 62 0 0.0 6.0 0.00 0.00 0.00
20260505112508 62 333 3.0 8.0 0.00 0.00 0.00
20260505112011 62 356 2.0 6.0 0.00 0.00 0.00
20260505111506 62 355 0.0 4.0 0.00 0.00 0.00
20260505111011 62 304 0.0 5.0 0.00 0.00 0.00
20260505110504 62 0 1.0 10.0 0.00 0.00 0.00
20260505102011 63 0 1.0 8.0 0.00 0.00 0.00
20260505101502 63 347 0.0 9.0 0.00 0.00 0.00
20260505101018 63 349 4.0 10.0 0.00 0.00 0.00